EWG6MG EDDL-HEGN

Flight info

Callsign EWG6MG
Flight time N/A
Altitude 35000
Route DODEN Y853 BOMBI DCT DETEV DCT DINKU M867 XERUM DCT BAVAX DCT RADIZ DCT MODRO DCT DARZA DCT PINDO UL607 ATV DCT GENDO UL607 PAXIS Y707 OBRAN L321 REXUM M872 HGD
Aircraft A320/M-SDE3FGHIRWY/LB1

Departure

Time 2026-02-19 13:26
Airport Düsseldorf Airport (EDDL)

Arrival

Time N/A
Airport Hurghada International Airport (HEGN)
Time Latitude Longitude Altitude Speed Heading
2026-02-19 13:12 51.28108 6.76546 127 ft 0 kts 96°
2026-02-19 13:19 51.28110 6.76527 128 ft 3 kts 95°
2026-02-19 13:20 51.28111 6.76495 127 ft 3 kts 89°
2026-02-19 13:20 51.28109 6.76451 127 ft 3 kts 69°
2026-02-19 13:20 51.28101 6.76430 125 ft 3 kts 15°
2026-02-19 13:21 51.28084 6.76431 126 ft 3 kts 335°
2026-02-19 13:21 51.28067 6.76445 128 ft 2 kts 327°
2026-02-19 13:21 51.28064 6.76449 125 ft 0 kts 327°
2026-02-19 13:23 51.28093 6.76418 129 ft 12 kts 326°
2026-02-19 13:23 51.28157 6.76291 127 ft 14 kts 312°
2026-02-19 13:23 51.28195 6.76163 127 ft 13 kts 248°
2026-02-19 13:24 51.28146 6.76056 127 ft 11 kts 233°
2026-02-19 13:24 51.28044 6.75841 128 ft 17 kts 232°
2026-02-19 13:25 51.27951 6.75564 128 ft 13 kts 303°
2026-02-19 13:25 51.28027 6.75504 125 ft 13 kts 334°
2026-02-19 13:25 51.28100 6.75495 126 ft 11 kts 43°
2026-02-19 13:25 51.28227 6.75759 125 ft 63 kts 53°
2026-02-19 13:26 51.28640 6.76625 131 ft 130 kts 52°
2026-02-19 13:26 51.29240 6.77935 419 ft 153 kts 55°
2026-02-19 13:26 51.29879 6.79311 1150 ft 155 kts 58°
2026-02-19 13:26 51.30540 6.80701 1737 ft 162 kts 60°
2026-02-19 13:27 51.31265 6.82239 1966 ft 184 kts 61°
2026-02-19 13:27 51.32078 6.83973 2164 ft 208 kts 61°
2026-02-19 13:27 51.33001 6.85936 2454 ft 232 kts 60°
2026-02-19 13:27 51.33999 6.88096 2908 ft 248 kts 60°
2026-02-19 13:28 51.34948 6.90389 3597 ft 251 kts 71°
2026-02-19 13:28 51.35005 6.95857 5025 ft 253 kts 101°
2026-02-19 13:28 51.34722 6.98662 5809 ft 257 kts 101°
2026-02-19 13:29 51.34431 7.01508 6562 ft 260 kts 101°
2026-02-19 13:29 51.34134 7.04379 7300 ft 263 kts 101°
2026-02-19 13:29 51.33833 7.07275 8054 ft 265 kts 101°
2026-02-19 13:29 51.33530 7.10211 8767 ft 270 kts 101°
2026-02-19 13:30 51.33225 7.13196 9477 ft 274 kts 101°
2026-02-19 13:30 51.32785 7.16177 10149 ft 276 kts 113°
2026-02-19 13:30 51.31887 7.18875 10813 ft 276 kts 128°
2026-02-19 13:30 51.30614 7.21127 11409 ft 279 kts 136°
2026-02-19 13:31 51.29188 7.23371 11676 ft 298 kts 137°
2026-02-19 13:31 51.27654 7.25783 11816 ft 319 kts 136°
2026-02-19 13:31 51.26022 7.28358 11954 ft 339 kts 136°
2026-02-19 13:31 51.24296 7.31080 12106 ft 357 kts 136°
2026-02-19 13:32 51.22513 7.33894 12607 ft 363 kts 137°
2026-02-19 13:32 51.18885 7.39609 13746 ft 371 kts 137°
2026-02-19 13:32 51.17049 7.42495 14385 ft 371 kts 137°
2026-02-19 13:33 51.15205 7.45392 14984 ft 373 kts 137°
2026-02-19 13:33 51.13343 7.48281 15587 ft 374 kts 136°
2026-02-19 13:33 51.11456 7.51171 16074 ft 378 kts 137°
2026-02-19 13:33 51.09554 7.54065 16695 ft 379 kts 136°
2026-02-19 13:34 51.07659 7.56945 17176 ft 383 kts 136°
2026-02-19 13:34 51.05719 7.59892 17665 ft 387 kts 136°
2026-02-19 13:34 51.03765 7.62859 18169 ft 389 kts 137°
2026-02-19 13:34 51.01808 7.65829 18685 ft 389 kts 137°
2026-02-19 13:35 50.99844 7.68810 19088 ft 392 kts 137°
2026-02-19 13:35 50.97862 7.71816 19541 ft 393 kts 137°
2026-02-19 13:35 50.95733 7.74555 20014 ft 394 kts 146°
2026-02-19 13:35 50.93413 7.76869 20428 ft 395 kts 148°
2026-02-19 13:36 50.91065 7.79176 20816 ft 398 kts 148°
2026-02-19 13:36 50.86313 7.83841 21493 ft 404 kts 148°
2026-02-19 13:36 50.83918 7.86200 21855 ft 407 kts 148°
2026-02-19 13:37 50.81507 7.88573 22191 ft 409 kts 148°
2026-02-19 13:37 50.79119 7.90915 22594 ft 409 kts 148°
2026-02-19 13:37 50.76685 7.93293 22941 ft 411 kts 148°
2026-02-19 13:37 50.74242 7.95680 23181 ft 416 kts 148°
2026-02-19 13:38 50.71774 7.98092 23393 ft 420 kts 149°
2026-02-19 13:38 50.69278 8.00524 23635 ft 422 kts 149°
2026-02-19 13:38 50.66776 8.02959 23930 ft 423 kts 149°
2026-02-19 13:38 50.64263 8.05403 24213 ft 425 kts 149°
2026-02-19 13:39 50.61738 8.07855 24572 ft 426 kts 149°
2026-02-19 13:39 50.59300 8.10532 24854 ft 428 kts 142°
2026-02-19 13:39 50.57013 8.13534 25147 ft 429 kts 141°
2026-02-19 13:40 50.52428 8.19554 25691 ft 430 kts 142°
2026-02-19 13:40 50.47817 8.25592 26177 ft 432 kts 142°
2026-02-19 13:40 50.45504 8.28621 26412 ft 433 kts 142°
2026-02-19 13:41 50.43189 8.31642 26635 ft 433 kts 142°
2026-02-19 13:41 50.40867 8.34666 26838 ft 434 kts 142°
2026-02-19 13:41 50.38561 8.37661 26992 ft 436 kts 142°
2026-02-19 13:41 50.36220 8.40697 27207 ft 436 kts 142°
2026-02-19 13:42 50.33883 8.43727 27490 ft 435 kts 142°
2026-02-19 13:42 50.31559 8.46735 27839 ft 432 kts 142°
2026-02-19 13:42 50.29250 8.49727 28166 ft 429 kts 142°
2026-02-19 13:42 50.26952 8.52702 28479 ft 428 kts 142°
2026-02-19 13:43 50.24665 8.55657 28777 ft 426 kts 143°
2026-02-19 13:43 50.22381 8.58602 29069 ft 425 kts 143°
2026-02-19 13:43 50.20104 8.61533 29355 ft 424 kts 143°
2026-02-19 13:43 50.17821 8.64463 29656 ft 423 kts 143°
2026-02-19 13:44 50.15551 8.67375 29928 ft 422 kts 143°
2026-02-19 13:44 50.11021 8.73176 30361 ft 421 kts 143°
2026-02-19 13:44 50.08753 8.76073 30564 ft 422 kts 142°
2026-02-19 13:45 50.06671 8.79206 30773 ft 424 kts 134°
2026-02-19 13:45 50.04897 8.82896 30978 ft 428 kts 125°
2026-02-19 13:45 50.03494 8.87006 31168 ft 431 kts 119°
2026-02-19 13:45 50.02198 8.91221 31355 ft 432 kts 119°
2026-02-19 13:46 50.00892 8.95439 31544 ft 432 kts 119°
2026-02-19 13:46 49.99582 8.99645 31740 ft 433 kts 119°
2026-02-19 13:46 49.98268 9.03852 31934 ft 433 kts 119°
2026-02-19 13:46 49.96951 9.08061 32127 ft 433 kts 119°
2026-02-19 13:47 49.95628 9.12268 32308 ft 434 kts 119°
2026-02-19 13:47 49.94300 9.16487 32475 ft 435 kts 119°
2026-02-19 13:47 49.92967 9.20720 32646 ft 436 kts 119°
2026-02-19 13:47 49.91654 9.24890 32845 ft 436 kts 119°
2026-02-19 13:48 49.90318 9.29124 33026 ft 436 kts 119°
2026-02-19 13:48 49.87643 9.37575 33409 ft 437 kts 119°
2026-02-19 13:48 49.86302 9.41803 33613 ft 437 kts 119°
2026-02-19 13:49 49.84959 9.46026 33792 ft 437 kts 119°
2026-02-19 13:49 49.83601 9.50244 33945 ft 437 kts 122°
2026-02-19 13:49 49.81966 9.54188 34083 ft 434 kts 130°
2026-02-19 13:49 49.79977 9.57680 34202 ft 431 kts 139°
2026-02-19 13:50 49.77817 9.60814 34332 ft 432 kts 140°
2026-02-19 13:50 49.75615 9.63996 34447 ft 433 kts 140°
2026-02-19 13:50 49.73407 9.67186 34570 ft 434 kts 140°
2026-02-19 13:50 49.71198 9.70383 34698 ft 435 kts 139°
2026-02-19 13:51 49.68978 9.73597 34725 ft 438 kts 139°
2026-02-19 13:51 49.64536 9.80025 34714 ft 440 kts 139°
2026-02-19 13:52 49.60038 9.86505 34709 ft 440 kts 140°
2026-02-19 13:52 49.53344 9.96100 34698 ft 440 kts 140°
2026-02-19 13:53 49.48855 10.02516 34703 ft 440 kts 140°
2026-02-19 13:53 49.44362 10.08921 34703 ft 441 kts 140°
2026-02-19 13:54 49.39863 10.15318 34705 ft 441 kts 140°
2026-02-19 13:54 49.35361 10.21703 34717 ft 441 kts 140°
2026-02-19 13:55 49.30855 10.28092 34713 ft 441 kts 140°
2026-02-19 13:55 49.26343 10.34458 34715 ft 441 kts 140°
2026-02-19 13:56 49.18925 10.42572 34751 ft 436 kts 152°
2026-02-19 13:57 49.13739 10.47298 34748 ft 436 kts 152°
2026-02-19 13:57 49.08520 10.52056 34762 ft 436 kts 152°
2026-02-19 13:58 49.03302 10.56792 34757 ft 436 kts 152°
2026-02-19 13:58 48.98080 10.61502 34748 ft 436 kts 152°
2026-02-19 13:59 48.92864 10.66212 34750 ft 435 kts 152°
2026-02-19 13:59 48.87652 10.70906 34754 ft 435 kts 152°
2026-02-19 14:00 48.82466 10.75650 34746 ft 436 kts 147°
2026-02-19 14:00 48.78009 10.81978 34737 ft 442 kts 135°
2026-02-19 14:00 48.75981 10.85395 34734 ft 442 kts 135°
2026-02-19 14:01 48.71863 10.92305 34726 ft 442 kts 135°
2026-02-19 14:01 48.67732 10.99211 34719 ft 442 kts 135°
2026-02-19 14:02 48.63599 11.06109 34723 ft 442 kts 135°
2026-02-19 14:02 48.59466 11.12995 34727 ft 442 kts 135°
2026-02-19 14:03 48.55325 11.19875 34726 ft 442 kts 136°
2026-02-19 14:03 48.51169 11.26740 34703 ft 443 kts 135°
2026-02-19 14:04 48.42829 11.40476 34684 ft 445 kts 136°
2026-02-19 14:05 48.38642 11.47349 34687 ft 446 kts 136°
2026-02-19 14:05 48.34444 11.54221 34691 ft 446 kts 136°
2026-02-19 14:06 48.30266 11.61036 34694 ft 446 kts 136°
2026-02-19 14:06 48.26045 11.67869 34691 ft 445 kts 138°
2026-02-19 14:07 48.22360 11.73292 34714 ft 441 kts 142°
2026-02-19 14:07 48.17799 11.79416 34718 ft 439 kts 143°
2026-02-19 14:08 48.10991 11.88503 34726 ft 439 kts 142°
2026-02-19 14:09 48.06492 11.94663 34724 ft 438 kts 142°
2026-02-19 14:09 48.01996 12.00832 34707 ft 438 kts 142°
2026-02-19 14:10 47.97508 12.06955 34721 ft 436 kts 142°
2026-02-19 14:10 47.93018 12.13038 34722 ft 435 kts 142°
2026-02-19 14:11 47.88528 12.19101 34722 ft 435 kts 143°
2026-02-19 14:11 47.84074 12.25109 34710 ft 435 kts 143°
2026-02-19 14:12 47.79589 12.31144 34710 ft 434 kts 143°
2026-02-19 14:12 47.72858 12.40190 34694 ft 435 kts 143°
2026-02-19 14:13 47.68350 12.46218 34679 ft 436 kts 143°
2026-02-19 14:13 47.63834 12.52247 34680 ft 437 kts 143°
2026-02-19 14:14 47.59247 12.58142 34671 ft 436 kts 145°
2026-02-19 14:14 47.54536 12.63778 34644 ft 435 kts 147°
2026-02-19 14:15 47.49794 12.69389 34641 ft 436 kts 147°
2026-02-19 14:15 47.45069 12.75049 34642 ft 438 kts 146°
2026-02-19 14:16 47.38020 12.83547 34625 ft 438 kts 146°
2026-02-19 14:17 47.33279 12.89238 34614 ft 439 kts 146°
2026-02-19 14:17 47.28527 12.94916 34598 ft 439 kts 147°
2026-02-19 14:18 47.23771 13.00577 34599 ft 440 kts 147°
2026-02-19 14:18 47.19016 13.06220 34601 ft 439 kts 148°
2026-02-19 14:19 47.14286 13.11831 34605 ft 439 kts 148°
2026-02-19 14:19 47.09530 13.17476 34616 ft 440 kts 148°
2026-02-19 14:20 46.99979 13.28731 34611 ft 441 kts 148°
2026-02-19 14:21 46.95189 13.34361 34611 ft 441 kts 148°
2026-02-19 14:21 46.90389 13.39989 34640 ft 442 kts 148°
2026-02-19 14:22 46.85606 13.45584 34653 ft 443 kts 148°
2026-02-19 14:22 46.80762 13.51246 34669 ft 443 kts 148°
2026-02-19 14:23 46.75974 13.56820 34634 ft 444 kts 149°
2026-02-19 14:23 46.71136 13.62427 34650 ft 444 kts 149°
2026-02-19 14:24 46.66287 13.68035 34659 ft 445 kts 149°
2026-02-19 14:24 46.59011 13.76449 34667 ft 445 kts 149°
2026-02-19 14:25 46.54157 13.82047 34683 ft 446 kts 149°
2026-02-19 14:25 46.49301 13.87632 34669 ft 446 kts 150°
2026-02-19 14:26 46.44423 13.93206 34664 ft 446 kts 150°
2026-02-19 14:26 46.39547 13.98778 34678 ft 446 kts 150°
2026-02-19 14:27 46.34672 14.04349 34671 ft 447 kts 150°
2026-02-19 14:27 46.29786 14.09913 34668 ft 447 kts 150°
2026-02-19 14:28 46.22484 14.18209 34628 ft 447 kts 150°
2026-02-19 14:29 46.17579 14.23754 34627 ft 448 kts 150°
2026-02-19 14:29 46.12665 14.29296 34628 ft 448 kts 150°
2026-02-19 14:30 46.07750 14.34829 34632 ft 448 kts 150°
2026-02-19 14:30 46.02839 14.40380 34624 ft 449 kts 150°
2026-02-19 14:31 45.97949 14.45984 34614 ft 450 kts 150°
2026-02-19 14:31 45.93057 14.51597 34614 ft 450 kts 150°
2026-02-19 14:32 45.88145 14.57193 34617 ft 450 kts 150°
2026-02-19 14:32 45.80802 14.65525 34632 ft 451 kts 150°
2026-02-19 14:33 45.75871 14.71097 34607 ft 451 kts 150°
2026-02-19 14:33 45.70933 14.76666 34622 ft 452 kts 150°
2026-02-19 14:34 45.65987 14.82234 34621 ft 452 kts 150°
2026-02-19 14:34 45.61026 14.87806 34634 ft 453 kts 150°
2026-02-19 14:35 45.56055 14.93377 34619 ft 454 kts 151°
2026-02-19 14:35 45.51081 14.98946 34614 ft 454 kts 151°
2026-02-19 14:36 45.43860 15.07749 34635 ft 462 kts 145°